Hourly Weather Juchowo

Today, 9 March, Tuesday

Time Temperature Precipitation Wind Pressure Humidity
00:00 -2°C° 0 mm 1 mps 753 mmHg 80%
01:00 -3°C° 0 mm 0 mps 752 mmHg 78%
02:00 -3°C° 0 mm 0 mps 752 mmHg 78%
03:00 -1°C° 0 mm 1 mps 752 mmHg 79%
04:00 -1°C° 0 mm 1 mps 752 mmHg 79%
05:00 -1°C° 0 mm 1 mps 752 mmHg 78%
06:00 -1°C° 0 mm 1 mps 752 mmHg 78%
07:00 -1°C° 0 mm 1 mps 752 mmHg 78%
08:00 -1°C° 0 mm 1 mps 752 mmHg 71%
09:00 -2°C° 0 mm 2 mps 752 mmHg 64%
10:00 -1°C° 0 mm 2 mps 752 mmHg 57%
11:00 +1°C° 0 mm 2 mps 751 mmHg 53%
12:00 +1°C° 0 mm 2 mps 751 mmHg 48%
13:00 +2°C° 0 mm 2 mps 751 mmHg 43%
14:00 +2°C° 0 mm 2 mps 751 mmHg 42%
15:00 +2°C° 0 mm 2 mps 751 mmHg 42%
16:00 +3°C° 0 mm 1 mps 751 mmHg 42%
17:00 +2°C° 0 mm 1 mps 750 mmHg 48%
18:00 +1°C° 0 mm 1 mps 750 mmHg 54%
19:00 -1°C° 0 mm 1 mps 750 mmHg 61%
20:00 -1°C° 0 mm 1 mps 751 mmHg 63%
21:00 -1°C° 0 mm 1 mps 751 mmHg 66%
22:00 -1°C° 0 mm 1 mps 751 mmHg 69%
23:00 -1°C° 0 mm 1 mps 751 mmHg 70%

Tomorrow, 10 March, Wednesday

Time Temperature Precipitation Wind Pressure Humidity
00:00 -2°C° 0 mm 1 mps 751 mmHg 70%
01:00 -2°C° 0 mm 1 mps 751 mmHg 71%
02:00 -2°C° 0 mm 1 mps 750 mmHg 70%
03:00 -2°C° 0 mm 1 mps 750 mmHg 70%
04:00 -3°C° 0 mm 0 mps 750 mmHg 69%
05:00 -2°C° 0 mm 0 mps 750 mmHg 68%
06:00 -2°C° 0 mm 0 mps 750 mmHg 67%
07:00 -2°C° 0 mm 0 mps 750 mmHg 65%
08:00 -1°C° 0 mm 0 mps 751 mmHg 58%
09:00 +1°C° 0 mm 0 mps 751 mmHg 52%
10:00 +3°C° 0 mm 1 mps 751 mmHg 45%
11:00 +3°C° 0 mm 0 mps 751 mmHg 41%
12:00 +3°C° 0 mm 0 mps 751 mmHg 38%
13:00 +4°C° 0 mm 0 mps 751 mmHg 34%
14:00 +4°C° 0 mm 0 mps 751 mmHg 36%
15:00 +4°C° 0 mm 0 mps 751 mmHg 37%
16:00 +3°C° 0 mm 0 mps 750 mmHg 38%
17:00 +3°C° 0 mm 1 mps 750 mmHg 43%
18:00 +1°C° 0 mm 1 mps 750 mmHg 49%
19:00 0°C° 0 mm 1 mps 750 mmHg 54%
20:00 0°C° 0 mm 1 mps 750 mmHg 55%
21:00 -3°C° 0 mm 2 mps 750 mmHg 56%
22:00 -3°C° 0 mm 2 mps 750 mmHg 57%
23:00 -4°C° 0 mm 3 mps 750 mmHg 57%

Day after tomorrow, 11 March, Thursday

Time Temperature Precipitation Wind Pressure Humidity
00:00 -4°C° 0 mm 3 mps 749 mmHg 58%
01:00 -4°C° 0 mm 3 mps 749 mmHg 58%
02:00 -4°C° 0 mm 4 mps 748 mmHg 57%
03:00 -3°C° 0 mm 4 mps 747 mmHg 56%
04:00 -3°C° 0 mm 4 mps 747 mmHg 54%
05:00 -4°C° 0 mm 5 mps 746 mmHg 54%
06:00 -2°C° 0 mm 5 mps 745 mmHg 54%
07:00 -3°C° 0 mm 6 mps 745 mmHg 54%
08:00 -2°C° 0 mm 6 mps 744 mmHg 56%
09:00 -1°C° 0 mm 7 mps 743 mmHg 58%
10:00 -1°C° 0 mm 8 mps 743 mmHg 60%
11:00 -1°C° 0.3 mm 8 mps 742 mmHg 69%
12:00 -1°C° 0.3 mm 8 mps 741 mmHg 79%
13:00 -1°C° 0.3 mm 8 mps 740 mmHg 88%
14:00 -1°C° 0.8 mm 8 mps 739 mmHg 90%
15:00 0°C° 0.8 mm 7 mps 738 mmHg 93%
16:00 0°C° 0.8 mm 7 mps 737 mmHg 95%
17:00 +1°C° 1.6 mm 6 mps 736 mmHg 95%
18:00 +1°C° 1.6 mm 6 mps 736 mmHg 95%
19:00 +1°C° 1.6 mm 5 mps 736 mmHg 95%
20:00 +2°C° 0.1 mm 5 mps 735 mmHg 95%
21:00 +3°C° 0.1 mm 4 mps 735 mmHg 95%
22:00 +3°C° 0.1 mm 4 mps 735 mmHg 95%
23:00 +3°C° 0.2 mm 4 mps 736 mmHg 95%

12 March, Friday

Time Temperature Precipitation Wind Pressure Humidity
00:00 +1°C° 0.2 mm 4 mps 736 mmHg 95%
01:00 +1°C° 0.2 mm 4 mps 736 mmHg 95%
02:00 +1°C° 0.7 mm 4 mps 736 mmHg 95%
03:00 +1°C° 0.7 mm 4 mps 736 mmHg 95%
04:00 +2°C° 0.7 mm 3 mps 736 mmHg 96%
05:00 +1°C° 0.7 mm 4 mps 736 mmHg 96%
06:00 +1°C° 0.7 mm 4 mps 737 mmHg 96%
07:00 +1°C° 0.7 mm 5 mps 737 mmHg 97%
08:00 +1°C° 0.9 mm 5 mps 738 mmHg 91%
09:00 +2°C° 0.9 mm 6 mps 739 mmHg 85%
10:00 +2°C° 0.9 mm 6 mps 739 mmHg 80%
11:00 +3°C° 0.1 mm 6 mps 740 mmHg 77%
12:00 +3°C° 0.1 mm 6 mps 740 mmHg 74%
13:00 +3°C° 0.1 mm 6 mps 741 mmHg 71%
14:00 +3°C° 0 mm 6 mps 741 mmHg 70%
15:00 +3°C° 0 mm 5 mps 741 mmHg 70%
16:00 +3°C° 0 mm 5 mps 741 mmHg 70%
17:00 +3°C° 0 mm 5 mps 741 mmHg 73%
18:00 +3°C° 0 mm 4 mps 741 mmHg 75%
19:00 +1°C° 0 mm 4 mps 741 mmHg 78%
20:00 +1°C° 0 mm 4 mps 740 mmHg 79%
21:00 +1°C° 0 mm 4 mps 740 mmHg 80%
22:00 +1°C° 0 mm 4 mps 740 mmHg 82%
23:00 +1°C° 0 mm 5 mps 739 mmHg 81%

13 March, Saturday

Time Temperature Precipitation Wind Pressure Humidity
00:00 +1°C° 0 mm 5 mps 739 mmHg 81%
01:00 +1°C° 0 mm 5 mps 738 mmHg 81%
02:00 +1°C° 0.3 mm 5 mps 738 mmHg 85%
03:00 +1°C° 0.3 mm 5 mps 737 mmHg 89%
04:00 +1°C° 0.3 mm 5 mps 737 mmHg 93%
05:00 +1°C° 0 mm 6 mps 737 mmHg 90%
06:00 +1°C° 0 mm 6 mps 737 mmHg 87%
07:00 +1°C° 0 mm 6 mps 738 mmHg 83%
08:00 +2°C° 0 mm 6 mps 738 mmHg 81%
09:00 +2°C° 0 mm 6 mps 738 mmHg 78%
10:00 +2°C° 0 mm 7 mps 738 mmHg 76%
11:00 +3°C° 0 mm 7 mps 738 mmHg 72%
12:00 +4°C° 0 mm 6 mps 738 mmHg 67%
13:00 +5°C° 0 mm 6 mps 738 mmHg 63%
14:00 +5°C° 0.1 mm 7 mps 738 mmHg 68%
15:00 +4°C° 0.1 mm 7 mps 737 mmHg 73%
16:00 +4°C° 0.1 mm 7 mps 736 mmHg 77%
17:00 +4°C° 0.7 mm 7 mps 736 mmHg 81%
18:00 +4°C° 0.7 mm 7 mps 735 mmHg 86%
19:00 +3°C° 0.7 mm 7 mps 735 mmHg 90%
20:00 +4°C° 0.6 mm 7 mps 735 mmHg 90%
21:00 +4°C° 0.6 mm 7 mps 734 mmHg 90%
22:00 +4°C° 0.6 mm 7 mps 734 mmHg 90%
23:00 +4°C° 0.2 mm 7 mps 734 mmHg 88%

14 March, Sunday

Time Temperature Precipitation Wind Pressure Humidity
00:00 +4°C° 0.2 mm 7 mps 733 mmHg 86%
01:00 +4°C° 0.2 mm 6 mps 733 mmHg 84%
02:00 +4°C° 0.1 mm 6 mps 733 mmHg 86%
03:00 +4°C° 0.1 mm 6 mps 732 mmHg 87%
04:00 +5°C° 0.1 mm 5 mps 732 mmHg 88%
05:00 +3°C° 0.2 mm 5 mps 732 mmHg 89%
06:00 +3°C° 0.2 mm 5 mps 732 mmHg 89%
07:00 +3°C° 0.2 mm 5 mps 732 mmHg 89%
08:00 +3°C° 0.7 mm 6 mps 732 mmHg 86%
09:00 +2°C° 0.7 mm 6 mps 733 mmHg 82%
10:00 +2°C° 0.7 mm 7 mps 733 mmHg 78%
11:00 +3°C° 0.1 mm 7 mps 734 mmHg 77%
12:00 +2°C° 0.1 mm 8 mps 734 mmHg 77%
13:00 +2°C° 0.1 mm 8 mps 734 mmHg 76%
14:00 +2°C° 0.2 mm 8 mps 735 mmHg 78%
15:00 +2°C° 0.2 mm 8 mps 735 mmHg 80%
16:00 +2°C° 0.2 mm 8 mps 735 mmHg 82%
17:00 +2°C° 0.4 mm 7 mps 736 mmHg 84%
18:00 +2°C° 0.4 mm 7 mps 736 mmHg 87%
19:00 +1°C° 0.4 mm 6 mps 737 mmHg 90%
20:00 +1°C° 0.1 mm 6 mps 737 mmHg 89%
21:00 +1°C° 0.1 mm 5 mps 738 mmHg 87%
22:00 +1°C° 0.1 mm 5 mps 738 mmHg 86%
23:00 +1°C° 0 mm 5 mps 738 mmHg 87%
Show more

We Need Your Consent

Meteoprog and our Service Providers may store and access personal data such as cookies, device identifiers or other similar technologies on your device and process such data to personalise content and ads, as well as provide social media features and to analyse the traffic.

  • Store and/or access information on your device

    Cookies, device identifiers or other information can be stored or accessed on your device for the purposes indicated above.

  • Personalised ads and content, ad and content measurement, audience insights, and products development

    Ads and content can be personalised based on a profile. More data can be added to better personalise ads and content. Ad and content performance can be measured. Insights about the audience who saw the ads and content can be derived. Such data can be used to develop or improve user’s experience, systems and software.

By clicking ‘I Agree’ you will allow the use of indicated cookies, device identifiers, web beacons or other similar technologies. Your settings can be changed in the browser on your device.

For certain purposes, legitimate interests may be relied on, rather than consent. You can read more about this in our Privacy and Cookie Policy.